Waarnemingen

Advertentie
Mijn weer
Culdrose, Groot Brittannië (3809): temperatuur & dauwpunt: 08.12.2018 11:00:00 - 14.12.2018 11:00:00 (GMT)Culdrose, Groot Brittannië (3809): windsnelheid & windstoten: 08.12.2018 11:00:00 - 14.12.2018 11:00:00 (GMT)Culdrose, Groot Brittannië (3809): windrichting: 08.12.2018 11:00:00 - 14.12.2018 11:00:00 (GMT)Culdrose, Groot Brittannië (3809): luchtdruk: 08.12.2018 11:00:00 - 14.12.2018 11:00:00 (GMT)Culdrose, Groot Brittannië (3809): zicht: 08.12.2018 11:00:00 - 14.12.2018 11:00:00 (GMT)Culdrose, Groot Brittannië (3809): neerslag: 08.12.2018 11:00:00 - 14.12.2018 11:00:00 (GMT)
Datum & Tijd tt [°C] td [°C] ff [km/u] ff [kn] fx [km/u] fx [kn] dd ppp [hPa] vv [km] rr [mm]
14.12.2018 11:00:00 6,7 2,8 24 13 - - ZO 1019,2 10 0,0
14.12.2018 10:00:00 6,9 2,4 22 12 - - ZO 1019,3 10 0,0
14.12.2018 09:00:00 6,8 3,0 26 14 - - OZO 1018,4 10 0,0
14.12.2018 08:00:00 6,7 2,9 21 11 - - OZO 1017,9 10 0,0
14.12.2018 07:00:00 6,7 2,7 22 12 - - OZO 1017,2 10 0,0
14.12.2018 06:00:00 6,8 2,7 18 10 - - OZO 1017,4 20 0,0
14.12.2018 05:00:00 6,8 2,9 18 10 - - OZO 1017,0 20 0,0
14.12.2018 04:00:00 6,6 3,0 18 10 - - OZO 1016,8 10 0,0
14.12.2018 03:00:00 6,7 2,9 18 10 - - OZO 1016,9 20 0,0
14.12.2018 02:00:00 6,6 2,9 18 10 - - OZO 1016,7 20 0,0
14.12.2018 01:00:00 6,8 2,2 22 12 - - OZO 1016,4 10 0,0
14.12.2018 00:00:00 6,9 2,8 22 12 - - OZO 1015,8 20 0,0
13.12.2018 23:00:00 6,6 3,1 28 15 48 26 O 1015,2 20 0,0
13.12.2018 22:00:00 6,7 3,1 26 14 46 25 O 1015,1 10 0,0
13.12.2018 21:00:00 6,7 2,7 26 14 48 26 O 1014,5 20 0,0
13.12.2018 20:00:00 6,7 2,4 28 15 50 27 OZO 1014,1 20 0,0
13.12.2018 19:00:00 6,6 3,1 34 18 55 30 OZO 1013,1 10 0,0
13.12.2018 18:00:00 6,4 3,4 28 15 55 30 O 1012,4 18 0,0
13.12.2018 17:00:00 6,6 4,0 31 17 57 31 OZO 1011,6 10 0,0
13.12.2018 16:00:00 6,7 4,0 39 21 61 33 O 1010,5 18 0,0
13.12.2018 15:00:00 7,0 5,0 34 18 59 32 O 1009,3 18 0,0
13.12.2018 14:00:00 6,9 4,7 42 23 74 40 OZO 1008,6 10 0,0
13.12.2018 13:00:00 6,8 5,7 44 24 72 39 OZO 1007,9 6 0,2
13.12.2018 12:00:00 7,1 6,1 44 24 70 38 OZO 1007,6 6 0,6
13.12.2018 11:00:00 7,4 6,5 39 21 65 35 OZO 1007,2 4,0 1,4
13.12.2018 10:00:00 7,3 6,5 41 22 67 36 O 1006,4 4,0 1,6
13.12.2018 09:00:00 7,3 6,3 41 22 67 36 OZO 1005,9 3,5 1,8
13.12.2018 08:00:00 7,4 6,4 16 9 67 36 OZO 1005,6 3,5 0,8
13.12.2018 07:00:00 7,4 6,2 37 20 70 38 OZO 1005,1 6 0,6
13.12.2018 06:00:00 7,5 6,1 15 8 61 33 OZO 1005,2 5 0,0
13.12.2018 05:00:00 7,7 6,0 35 19 65 35 OZO 1005,0 8 0,2
13.12.2018 04:00:00 7,6 5,9 41 22 65 35 OZO 1005,1 8 0,2
13.12.2018 03:00:00 7,5 6,0 34 18 59 32 OZO 1005,6 8 0,2
13.12.2018 02:00:00 7,4 6,1 34 18 59 32 OZO 1006,0 7 0,8
13.12.2018 01:00:00 7,7 6,2 34 18 57 31 OZO 1006,5 10 0,2
13.12.2018 00:00:00 8,3 6,6 44 24 61 33 ZO 1007,3 11 0,0
12.12.2018 23:00:00 8,7 6,6 35 19 61 33 ZO 1008,0 10 0,0
12.12.2018 22:00:00 8,8 6,7 34 18 54 29 ZO 1008,5 10 0,0
12.12.2018 21:00:00 8,9 6,7 34 18 54 29 ZO 1009,4 20 0,0
12.12.2018 20:00:00 9,2 6,8 26 14 - - ZZO 1010,5 10 0,0
12.12.2018 19:00:00 9,3 7,6 21 11 - - ZZO 1011,1 10 0,0
12.12.2018 18:00:00 9,6 7,2 26 14 - - ZO 1011,9 25 0,0
12.12.2018 17:00:00 9,3 7,2 22 12 - - ZO 1012,3 10 0,0
12.12.2018 16:00:00 9,0 6,7 15 8 - - ZO 1013,0 10 0,0
12.12.2018 15:00:00 9,7 6,6 16 9 - - ZO 1013,6 20 0,0
12.12.2018 14:00:00 10,2 6,6 15 8 - - ZO 1014,2 25 0,0
12.12.2018 13:00:00 9,9 6,8 9 5 - - ZZO 1015,4 25 0,0
12.12.2018 12:00:00 10,2 7,2 8 4 - - ZO 1016,2 10 0,0
12.12.2018 11:00:00 9,6 8,2 0 0 - - N 1016,8 10 0,0
12.12.2018 10:00:00 7,2 6,7 8 4 - - ONO 1017,2 10 0,0
12.12.2018 09:00:00 6,3 5,8 8 4 - - W 1017,8 20 0,2
12.12.2018 08:00:00 6,9 6,5 9 5 - - W 1017,6 10 0,0
12.12.2018 07:00:00 7,2 6,7 8 4 - - WNW 1017,1 10 0,0
12.12.2018 06:00:00 8,3 7,7 9 5 - - WNW 1017,0 10 0,0
12.12.2018 05:00:00 8,8 8,0 9 5 - - W 1017,1 10 0,8
12.12.2018 04:00:00 9,1 8,4 13 7 - - ZO 1017,2 10 0,4
12.12.2018 03:00:00 8,9 8,2 11 6 - - ZZO 1017,1 14 0,0
12.12.2018 02:00:00 9,1 8,3 8 4 - - ZZO 1016,8 16 0,2
12.12.2018 01:00:00 8,9 8,1 8 4 - - ZZO 1016,4 20 0,0
12.12.2018 00:00:00 9,0 8,2 11 6 - - O 1016,5 14 0,4
11.12.2018 23:00:00 9,3 8,7 16 9 - - O 1016,4 16 1,0
11.12.2018 22:00:00 9,7 9,2 9 5 - - ZZO 1016,9 5 1,8
11.12.2018 21:00:00 9,9 9,5 18 10 - - Z 1016,7 4,0 5,4
11.12.2018 20:00:00 9,9 9,1 22 12 46 25 Z 1016,9 3,0 3,6
11.12.2018 19:00:00 10,8 8,2 24 13 52 28 ZZO 1017,0 8 0,0
11.12.2018 18:00:00 10,7 8,1 22 12 - - ZZO 1017,5 10 0,0
11.12.2018 17:00:00 10,6 8,0 24 13 - - ZZO 1017,9 10 0,0
11.12.2018 16:00:00 10,3 8,4 24 13 - - ZZO 1018,5 10 0,0
11.12.2018 15:00:00 10,0 7,9 22 12 - - ZZO 1018,8 10 0,0
11.12.2018 14:00:00 10,3 7,0 22 12 46 25 Z 1019,3 10 0,0
11.12.2018 13:00:00 10,3 6,9 26 14 48 26 ZZO 1020,1 10 0,0
11.12.2018 12:00:00 10,3 5,9 21 11 - - ZZO 1021,0 10 0,0
11.12.2018 11:00:00 10,6 7,1 24 13 - - ZZO 1021,6 10 0,0
11.12.2018 10:00:00 10,3 7,1 18 10 - - ZZO 1022,1 10 0,0
11.12.2018 09:00:00 10,1 7,6 21 11 - - ZZO 1022,2 12 0,0
11.12.2018 08:00:00 10,2 8,3 18 10 - - ZZO 1022,3 10 0,0
11.12.2018 07:00:00 10,2 7,4 11 6 - - ZZO 1022,6 10 0,0
11.12.2018 06:00:00 10,2 7,5 11 6 - - Z 1023,1 10 0,0
11.12.2018 05:00:00 10,0 7,8 11 6 - - ZZO 1023,5 25 0,0
11.12.2018 04:00:00 10,0 7,4 11 6 - - Z 1024,2 18 0,0
11.12.2018 03:00:00 9,7 8,1 9 5 - - ZZO 1024,9 10 0,0
11.12.2018 02:00:00 9,9 8,0 9 5 - - ZZO 1025,6 16 0,0
11.12.2018 01:00:00 9,9 8,3 9 5 - - ZZO 1026,4 16 0,0
11.12.2018 00:00:00 10,1 8,1 8 4 - - Z 1027,2 18 0,0
10.12.2018 23:00:00 10,3 7,9 11 6 - - ZZW 1027,6 18 0,0
10.12.2018 22:00:00 9,6 8,4 8 4 - - Z 1027,9 10 0,0
10.12.2018 21:00:00 9,5 8,4 8 4 - - ZZO 1028,1 16 0,0
10.12.2018 20:00:00 9,7 8,3 8 4 - - Z 1028,4 16 0,0
10.12.2018 19:00:00 9,6 7,6 8 4 - - ZZO 1028,6 16 0,0
10.12.2018 18:00:00 10,0 7,5 11 6 - - ZW 1028,6 15 0,0
10.12.2018 17:00:00 10,4 8,0 9 5 - - ZW 1028,7 15 0,0
10.12.2018 16:00:00 10,6 8,2 15 8 - - WZW 1029,2 10 0,0
10.12.2018 15:00:00 10,6 8,2 9 5 - - ZW 1029,4 10 0,0
10.12.2018 14:00:00 10,8 7,9 11 6 - - WZW 1029,8 10 0,0
10.12.2018 13:00:00 10,6 7,7 13 7 - - W 1029,9 10 0,0
10.12.2018 12:00:00 10,5 7,6 9 5 - - WZW 1030,5 10 0,0
10.12.2018 11:00:00 10,7 7,4 11 6 - - W 1031,0 10 0,0
10.12.2018 10:00:00 9,2 6,8 8 4 - - W 1030,9 10 0,0
10.12.2018 09:00:00 8,5 6,1 9 5 - - W 1030,6 10 0,0
10.12.2018 08:00:00 7,4 4,9 11 6 - - W 1030,3 25 0,0
10.12.2018 07:00:00 8,1 5,4 11 6 - - W 1030,3 10 0,0
10.12.2018 06:00:00 7,7 5,1 11 6 - - W 1030,4 25 0,0
10.12.2018 05:00:00 7,7 5,2 15 8 - - WNW 1030,0 10 0,0
10.12.2018 04:00:00 7,4 4,5 18 10 - - WNW 1030,0 20 0,0
10.12.2018 03:00:00 7,4 4,5 16 9 - - WNW 1029,9 10 0,0
10.12.2018 02:00:00 7,3 4,3 11 6 - - W 1029,7 20 0,0
10.12.2018 01:00:00 8,1 4,6 16 9 - - WNW 1029,4 26 0,0
10.12.2018 00:00:00 8,1 4,6 24 13 - - WNW 1029,2 10 0,0
09.12.2018 23:00:00 8,5 4,9 22 12 - - WNW 1028,5 29 0,0
09.12.2018 22:00:00 8,8 5,6 21 11 - - W 1028,3 22 0,0
09.12.2018 21:00:00 9,4 5,9 22 12 - - WNW 1027,9 10 0,0
09.12.2018 20:00:00 9,2 6,2 29 16 - - WNW 1027,2 20 0,0
09.12.2018 19:00:00 9,1 5,8 31 17 46 25 WNW 1026,3 20 0,0
09.12.2018 18:00:00 9,5 5,8 35 19 48 26 WNW 1025,6 23 0,0
09.12.2018 17:00:00 9,6 6,0 35 19 48 26 WNW 1024,7 21 0,0
09.12.2018 16:00:00 10,0 6,3 35 19 54 29 WNW 1023,7 20 0,0
09.12.2018 15:00:00 10,6 6,7 41 22 57 31 WNW 1022,8 20 0,0
09.12.2018 14:00:00 10,2 6,8 37 20 63 34 WNW 1021,8 10 0,4
09.12.2018 13:00:00 9,6 8,1 31 17 67 36 WNW 1021,0 6 0,4
09.12.2018 12:00:00 11,3 6,3 48 26 70 38 WNW 1019,9 10 0,0
09.12.2018 11:00:00 11,0 6,6 48 26 76 41 WNW 1018,9 10 0,0
09.12.2018 10:00:00 11,0 6,9 50 27 76 41 WNW 1017,3 10 0,0
09.12.2018 09:00:00 10,8 7,0 48 26 81 44 WNW 1015,7 10 0,0
09.12.2018 08:00:00 10,8 6,6 57 31 81 44 WNW 1013,8 10 0,0
09.12.2018 07:00:00 10,6 7,2 52 28 89 48 W 1012,6 10 0,0
09.12.2018 06:00:00 10,8 7,1 46 25 80 43 W 1011,8 10 0,0
09.12.2018 05:00:00 10,5 6,9 52 28 89 48 W 1011,2 16 0,0
09.12.2018 04:00:00 10,9 6,9 54 29 94 51 W 1010,6 10 0,0
09.12.2018 03:00:00 10,6 6,7 63 34 94 51 W 1010,0 10 0,0
09.12.2018 02:00:00 11,0 5,9 68 37 94 51 W 1009,7 13 0,0
09.12.2018 01:00:00 10,6 5,6 63 34 94 51 W 1009,5 13 0,0
09.12.2018 00:00:00 10,6 6,1 52 28 80 43 W 1009,2 12 0,0
08.12.2018 23:00:00 10,6 4,7 61 33 85 46 W 1008,7 13 0,0
08.12.2018 22:00:00 10,7 5,4 57 31 89 48 W 1008,6 16 0,0
08.12.2018 21:00:00 10,5 6,0 57 31 89 48 W 1008,4 13 0,0
08.12.2018 20:00:00 10,8 6,4 57 31 83 45 W 1008,0 10 0,0
08.12.2018 19:00:00 10,2 6,8 55 30 83 45 W 1007,7 12 0,2
08.12.2018 18:00:00 10,2 7,8 50 27 83 45 W 1007,6 10 0,4
08.12.2018 17:00:00 11,4 9,2 46 25 78 42 W 1007,3 7 0,0
08.12.2018 16:00:00 11,8 8,5 54 29 78 42 W 1007,2 9 0,0
08.12.2018 15:00:00 12,1 9,3 52 28 78 42 W 1007,3 10 0,0
08.12.2018 14:00:00 12,3 10,5 37 20 67 36 W 1007,3 11 0,0
08.12.2018 13:00:00 12,0 11,4 26 14 57 31 WZW 1008,2 10 0,2
08.12.2018 12:00:00 11,8 11,4 29 16 70 38 WZW 1008,7 3,5 0,0
08.12.2018 11:00:00 11,3 11,1 37 20 70 38 ZW 1009,6 2,0 0,2

tt = temperatuur
td = dauwpunt
ff = windsnelheid
fx = windstoten
dd = windrichting
ppp = luchtdruk
vv = zicht
rr = neerslag

Weerstations in de omgeving